Hourly Data Report for September 07, 2020

LOURDES DE BLANC SABLON A
QUEBEC
Current Station Operator: NAVCAN

51°26'31.000" N
57°11'10.000" W
37.20 m
7040815
71808
YBX

Download Data

Hourly Data (September 2020)
Hourly Data Report for September 7, 2020
TIME Temp Definition
°C
Dew Point Definition
°C
Rel Hum Definition
%
Wind Dir Definition
10's deg

Wind Spd Definition
km/h
Visibility Definition
km
Stn Press Definition
kPa
Hmdx Definition


Wind Chill Definition


Weather Definition


00:00 9.3 8.3 93 29 7 24.1 101.37     LegendNANA
01:00 9.4 8.4 94 36 3 24.1 101.41     LegendNANA
02:00 8.5 8.0 97 36 1 24.1 101.47     Clear
03:00 8.0 7.5 96 27 5 24.1 101.57     LegendNANA
04:00 7.5 6.7 94 3 3 24.1 101.69     LegendNANA
05:00 6.2 5.8 97 0 1 24.1 101.77     Clear
06:00 7.2 6.9 98 4 5 24.1 101.83     LegendNANA
07:00 9.5 8.7 95 10 3 24.1 101.91     LegendNANA
08:00 11.4 9.1 85 22 7 24.1 102.00     Mainly Clear
09:00 12.1 9.6 85 24 13 24.1 102.09     LegendNANA
10:00 13.4 8.5 72 23 11 24.1 102.06     LegendNANA
11:00 14.5 10.6 77 23 21 24.1 102.14     Mainly Clear
12:00 15.2 10.8 75 23 27 24.1 102.22     LegendNANA
13:00 15.1 10.8 75 24 27 24.1 102.18     LegendNANA
14:00 15.3 11.1 76 24 22 24.1 102.14     Mostly Cloudy
15:00 14.7 10.6 76 24 21 24.1 102.12     LegendNANA
16:00 14.6 9.7 72 24 12 24.1 102.06     LegendNANA
17:00 14.0 10.4 79 18 11 24.1 102.03     Cloudy
18:00 13.0 10.4 84 21 9 24.1 102.03     LegendNANA
19:00 12.1 10.4 89 32 4 24.1 102.07     LegendNANA
20:00 10.8 9.1 89 31 5 24.1 102.03     Mostly Cloudy
21:00 11.6 8.8 83 26 5 24.1 102.03     LegendNANA
22:00 9.2 7.8 91 4 10 24.1 101.98     LegendNANA
23:00 9.7 8.1 90 8 11 24.1 101.88     Mainly Clear

Notes on Data Quality.

Legend

  • E = Estimated
  • M = Missing
  • NA = Not Available*
  • [empty] = Indicates an unobserved value
Date modified: